THORAD AGENA D DEB

基本信息
目录编号:
42531
目录名称:
THORAD AGENA D DEB
国际标识:
1970-025SM
轨道中心:
EARTH
物体状态:
在轨
发射日期:
1970-04-08 UTC
轨道信息
数据来源: 国际轨道数据
星历时间: 2026-07-07T21:46:01+0800
半长轴: 7449.106km
偏心率: 0.0052269
轨道倾角: 99.794°
近地点辐角: 228.101°
升交点赤经: 303.937°
平近点角: 202.025°
近地点: 1032.033km
远地点: 1109.905km
周期: 106.639分钟
每日圈数: 13.503508
详细信息
发射场:
AFWTR
轨道高度:
LEO
数据来源:
AOE Integration Group
参考系:
TEME
时间系统:
UTC
历元类型:
SGP4
2D轨道图
3D轨道图
轨道高度分析图
轨道倾角分析图
轨道综合分析图
查看轨道综合分析图